Location: Saint-Palais-sur-Mer
(45.6429°N, 1.0859°W)
Time: 13:57:11
(UTC+01:00)

ARIANE 6 FM1 Upper Stage - Pass Details

Date: 26 January 2026
Orbit: 522 x 609 km, 62.0° (Epoch: 13 February)

Event Time Altitude Azimuth Distance (km) Brightness Sun altitude
Rises 20:10:16 0° 254° (WSW) 2,699 7.5 -22.4°
Reaches altitude 10° 20:12:48 10° 268° (W) 1,796 6.4 -22.8°
Maximum altitude 20:16:08 24° 324° (NW) 1,124 4.5 -23.4°
Enters shadow 20:17:21 21° 352° (N) 1,233 4.4 -23.6°
